Location: Buchloe
(48.0161°N, 10.7316°E)
Time: 02:52:21
(UTC+02:00)

ISS - Pass Details

Date: 07 July 2025
Orbit: 413 x 417 km, 51.6° (Epoch: 12 July)

Event Time Altitude Azimuth Distance (km) Brightness Sun altitude
Rises 03:38:14 0° 291° (WNW) 2,358 -0.1 -13.1°
Reaches altitude 10° 03:40:20 10° 294° (WNW) 1,494 -1.0 -12.9°
Maximum altitude 03:43:40 70° 18° (NNE) 447 -3.5 -12.6°
Drops below altitude 10° 03:47:01 10° 104° (ESE) 1,491 -0.7 -12.3°
Sets 03:49:07 0° 106° (ESE) 2,353 0.3 -12.1°
